AQUA

Last updated on Sun Apr 12 2026 00:02:17 GMT+0000 (Coordinated Universal Time)

1 27424U 02022A 26101.53635838 .00000740 00000+0 15730-3 0 9995 2 27424 98.4226 69.5137 0001682 110.5237 315.9439 14.62054916273531
UTC large
Height (km)
Speed (km/s)
/
Latitude / Longitude
Inclination (degrees)
Orbital Period (minutes)
Azimuth
Elevation
Range (km)
Doppler Factor

Next 0 passes for location: London (51.5072 / 0.1276)

Sorry there are no passes over London.
AQUA